Location: Caracas
(10.5033°N, 66.8422°W)
Time: 19:43:48
(UTC-04:00)

Vanguard 1 - All Passes

Search period start: 24 February 2018 00:00
Search period end: 06 March 2018 00:00
Orbit: 650 x 3833 km, 34.2° (Epoch: 24 February)

Date Brightness Start Highest point End Pass type
(mag) Time Alt. Az. Time Alt. Az. Time Alt. Az.
24 Feb - 06:41:55 10° S 06:50:59 14° SSE 07:00:37 10° SE daylight
24 Feb - 08:59:35 10° SSW 09:20:48 42° SE 09:38:55 10° E daylight
24 Feb - 11:24:25 10° SW 11:48:04 88° NW 12:03:08 10° NE daylight
24 Feb - 13:56:27 10° W 14:13:09 37° NNW 14:23:11 10° NE daylight
24 Feb - 16:33:19 10° NW 16:38:03 14° NNW 16:41:49 10° NNE daylight
24 Feb - 18:59:43 10° NNW 19:02:24 13° NNE 19:04:44 10° NE visible
24 Feb - 21:19:03 10° NW 21:23:36 81° NE 21:28:18 10° ESE visible
24 Feb - 23:43:10 10° SW 23:44:20 11° SSW 23:45:36 10° SSW night (unlit)
25 Feb - 07:00:25 10° S 07:13:52 19° SE 07:28:06 10° ESE daylight
25 Feb - 09:20:12 10° SW 09:42:42 53° SE 10:01:10 10° ENE daylight
25 Feb - 11:46:23 10° WSW 12:09:35 73° NW 12:24:10 10° NE daylight
25 Feb - 14:20:17 10° W 14:34:50 30° NNW 14:43:56 10° NNE daylight
25 Feb - 16:56:23 10° NNW 17:00:07 13° N 17:03:11 10° NNE daylight
25 Feb - 19:19:57 10° NNW 19:23:58 19° NNE 19:27:17 10° ENE visible
25 Feb - 21:40:11 10° WNW 21:44:31 51° SW 21:49:11 10° SE visible
26 Feb - 07:19:54 10° SSW 07:36:18 26° SE 07:53:23 10° E daylight
26 Feb - 09:41:05 10° SW 10:04:28 66° SE 10:22:59 10° ENE daylight
26 Feb - 12:08:48 10° WSW 12:31:08 60° NW 12:45:05 10° NE daylight
26 Feb - 14:44:22 10° WNW 14:56:42 24° NNW 15:04:47 10° NNE daylight
26 Feb - 17:18:27 10° NNW 17:22:11 13° N 17:25:13 10° NNE daylight
26 Feb - 19:40:29 10° NW 19:45:22 29° NNE 19:49:16 10° E visible
26 Feb - 22:01:46 10° W 22:05:30 26° SW 22:09:34 10° SSE visible
27 Feb - 07:39:50 10° SSW 07:58:24 34° SE 08:17:19 10° E daylight
27 Feb - 10:02:16 10° SW 10:26:10 80° SE 10:44:28 10° ENE daylight
27 Feb - 12:31:41 10° WSW 12:52:45 49° NNW 13:05:57 10° NE daylight
27 Feb - 15:08:29 10° WNW 15:18:46 21° NNW 15:25:48 10° NNE daylight
27 Feb - 17:39:44 10° NNW 17:44:09 15° N 17:47:37 10° NE daylight
27 Feb - 20:01:14 10° NW 20:06:32 50° NNE 20:10:48 10° ESE visible
27 Feb - 22:24:15 10° WSW 22:26:34 14° SSW 22:29:04 10° S night (unlit)
28 Feb - 05:44:33 10° SSE 05:51:43 13° SE 05:59:36 10° ESE visible
28 Feb - 08:00:06 10° SSW 08:20:16 44° SE 08:40:21 10° ENE daylight
28 Feb - 10:23:46 10° SW 10:47:49 86° NW 11:05:45 10° NE daylight
28 Feb - 12:55:04 10° W 13:14:31 40° NNW 13:26:50 10° NE daylight
28 Feb - 15:32:15 10° NW 15:40:58 19° NNW 15:47:06 10° NNE daylight
28 Feb - 18:00:41 10° NNW 18:06:00 19° NNE 18:09:56 10° ENE daylight
28 Feb - 20:22:14 10° NW 20:27:32 87° SSW 20:31:55 10° SE visible
01 Mar - 06:02:18 10° S 06:14:13 19° SE 06:27:54 10° ESE visible
01 Mar - 08:20:37 10° SSW 08:41:59 55° SE 09:02:44 10° ENE daylight
01 Mar - 10:45:38 10° WSW 11:09:30 73° NW 11:26:52 10° NE daylight
01 Mar - 13:18:52 10° W 13:36:30 33° NNW 13:47:48 10° NE daylight
01 Mar - 15:55:24 10° NW 16:03:12 18° N 16:08:46 10° NE daylight
01 Mar - 18:21:32 10° NW 18:27:40 26° NNE 18:31:58 10° ENE daylight
01 Mar - 20:43:35 10° WNW 20:48:25 44° SW 20:52:36 10° SE visible
02 Mar - 06:21:31 10° S 06:36:17 26° SE 06:53:32 10° E visible
02 Mar - 08:41:25 10° SW 09:03:38 68° SE 09:24:39 10° ENE daylight
02 Mar - 11:07:56 10° WSW 11:31:14 61° NNW 11:47:55 10° NE daylight
02 Mar - 13:42:57 10° WNW 13:58:39 28° NNW 14:08:53 10° NE daylight
02 Mar - 16:17:50 10° NW 16:25:24 19° N 16:30:44 10° NE daylight
02 Mar - 18:42:26 10° NW 18:49:08 38° NNE 18:53:39 10° E daylight
02 Mar - 21:05:27 10° W 21:09:15 22° SW 21:12:45 10° SSE visible
03 Mar - 06:41:19 10° SSW 06:58:04 34° SE 07:17:41 10° E daylight
03 Mar - 09:02:29 10° SW 09:25:17 81° SE 09:46:16 10° ENE daylight
03 Mar - 11:30:41 10° WSW 11:53:08 51° NNW 12:08:57 10° NE daylight
03 Mar - 14:07:03 10° WNW 14:21:00 25° NNW 14:30:11 10° NE daylight
03 Mar - 16:39:39 10° NW 16:47:30 21° N 16:52:49 10° NE daylight
03 Mar - 19:03:28 10° NW 19:10:22 61° NNE 19:14:58 10° ESE visible
03 Mar - 21:28:41 10° WSW 21:30:08 11° SW 21:31:33 10° SSW visible
04 Mar - 04:48:58 10° SSE 04:52:45 11° SE 04:56:51 10° SE visible
04 Mar - 07:01:27 10° SSW 07:19:40 44° SE 07:40:54 10° ENE daylight
04 Mar - 09:23:53 10° SW 09:46:59 85° NW 10:07:40 10° NE daylight
04 Mar - 11:53:55 10° W 12:15:12 43° NNW 12:30:01 10° NE daylight
04 Mar - 14:30:53 10° NW 14:43:26 23° N 14:51:46 10° NE daylight
04 Mar - 17:01:05 10° NW 17:09:26 26° NNE 17:14:50 10° ENE daylight
04 Mar - 19:24:42 10° WNW 19:31:22 77° SW 19:35:56 10° SE visible
05 Mar - 05:05:03 10° S 05:14:52 17° SE 05:26:47 10° ESE visible
05 Mar - 07:21:52 10° SSW 07:41:10 56° SE 08:03:26 10° ENE daylight
05 Mar - 09:45:37 10° WSW 10:08:47 72° NW 10:28:55 10° NE daylight
05 Mar - 12:17:34 10° W 12:37:29 36° NNW 12:51:12 10° NE daylight
05 Mar - 14:54:10 10° NW 15:05:53 23° N 15:13:35 10° NE daylight
05 Mar - 17:22:20 10° NW 17:31:11 34° NNE 17:36:37 10° E daylight
05 Mar - 19:46:16 10° WNW 19:52:11 42° SW 19:56:29 10° SSE visible
